{"data":{"norad_id":58742,"intl_designator":"2024-005Q","name":"STARLINK-31151","alt_names":[],"object_type":"PAYLOAD","status":"ACTIVE","operator":null,"country":"US","launch_date":"2024-01-07","launch_site_code":"AFETR","launch_vehicle":null,"mission":null,"orbit_class":"UNKNOWN","rcs_meters":null,"size_class":null,"mass_kg":null,"dimensions":null,"purposes":["comms"],"wikipedia_slug":null,"has_3d_model":false,"image_url":null,"decayed_at":null,"tle_current":{"epoch":"2026-09-20T12:41:13.407360Z","epoch_age_seconds":147321,"freshness":"FRESH","line1":"1 58742U 24005Q   26263.52862740  .00000133  00000+0  14370-4 0  9995","line2":"2 58742  43.0018 199.2548 0001076 268.7487  91.3241 15.27578912150337","mean_motion":15.27578912,"eccentricity":0.0001076,"inclination_deg":43.0018,"raan_deg":199.2548,"arg_perigee_deg":268.7487,"mean_anomaly_deg":91.3241,"bstar":1.437e-5,"rev_number":15033,"period_min":94.266815854028,"perigee_km":482.31408993051,"apogee_km":483.79061787947,"semimajor_km":6861.189353905,"source":"CELESTRAK","updated_at":"2026-09-21T09:00:33.954141Z"}}}